Location: Newark
(44.9486°N, 4.8961°E)
Time: 16:45:11
(UTC+00:00)

ISS - Pass Details

Date: 28 July 2019
Orbit: 410 x 420 km, 51.6° (Epoch: 23 August)

Event Time Altitude Azimuth Distance (km) Brightness Sun altitude
Rises 20:38:04 0° 298° (WNW) 2,374 1.7 -13.1°
Reaches altitude 10° 20:40:19 10° 309° (NW) 1,506 0.5 -13.3°
Maximum altitude 20:43:24 32° 14° (NNE) 748 -2.2 -13.7°
Enters shadow 20:46:12 12° 78° (ENE) 1,401 -1.4 -14.1°
